Change the Weather History Date:

Thursday, April 11, 2013

  Actual Average Record
Temperature  
Mean Temperature 30 °F -  
Max Temperature 35 °F 50 °F 82 °F (1977)
Min Temperature 26 °F 26 °F 10 °F (1952)
Degree Days  
Heating Degree Days 35    
Moisture  
Dew Point 21 °F    
Average Humidity 72    
Maximum Humidity 93    
Minimum Humidity 32    
Precipitation  
Precipitation 0.07 in - - ()
Sea Level Pressure  
Sea Level Pressure 29.92 in    
Wind  
Wind Speed 10 mph (ENE)    
Max Wind Speed 17 mph    
Max Gust Speed 31 mph    
Visibility 6 miles    
Events Fog , Snow    
Averages and records for this station are not official NWS values.
T = Trace of Precipitation, MM = Missing Value Source: NWS Daily Summary

Daily Weather History Graph

Daily Weather History Graph

Search for Another Location

Airport or City:

Trip Planner

Search our weather history database for the weather conditions in past years. The results will help you decide how hot, cold, wet, or windy it might be!

Date:

Astronomy

Apr. 11, 2013 Rise Set
Actual Time 6:13 AM CDT 7:34 PM CDT
Civil Twilight 5:42 AM CDT 8:05 PM CDT
Nautical Twilight 5:05 AM CDT 8:42 PM CDT
Astronomical Twilight 4:25 AM CDT 9:22 PM CDT
Moon 6:40 AM CDT (4/11) 9:14 PM CDT (4/11)
Length of Visible Light 14h 22m
Length of Day
13h 21m
New Moon, 2% of the Moon is Illuminated
Apr 11
New Moon
Apr 18
First Quarter
Apr 25
Full
May 2
Last Quarter
May 9
New

Hourly Weather History & Observations

Time (CDT) Temp. Windchill Dew Point Humidity Pressure Visibility Wind Dir Wind Speed Gust Speed Precip Events Conditions
12:54 AM 32.0 °F 24.8 °F 21.0 °F 64% 30.08 in 10.0 mi NE 8.1 mph 17.3 mph N/A   Clear
1:54 AM 32.0 °F 25.6 °F 21.0 °F 64% 30.08 in 10.0 mi NE 6.9 mph - N/A   Clear
2:54 AM 32.0 °F 26.4 °F 21.0 °F 64% 30.06 in 10.0 mi ENE 5.8 mph - N/A   Clear
3:54 AM 30.9 °F 21.2 °F 21.0 °F 67% 30.04 in 10.0 mi NE 12.7 mph 23.0 mph N/A   Clear
4:54 AM 32.0 °F 25.6 °F 21.0 °F 64% 30.05 in 10.0 mi ENE 6.9 mph - N/A   Clear
5:54 AM 30.9 °F 22.8 °F 19.9 °F 64% 30.06 in 10.0 mi NE 9.2 mph - N/A   Clear
6:54 AM 30.9 °F 22.8 °F 19.9 °F 64% 30.06 in 10.0 mi ENE 9.2 mph 18.4 mph N/A   Clear
7:54 AM 30.9 °F 21.2 °F 19.0 °F 61% 30.01 in 10.0 mi East 12.7 mph 18.4 mph N/A   Mostly Cloudy
8:54 AM 30.9 °F 22.8 °F 19.0 °F 61% 30.02 in 10.0 mi East 9.2 mph 19.6 mph N/A   Overcast
9:54 AM 32.0 °F 23.0 °F 19.0 °F 59% 30.00 in 10.0 mi East 11.5 mph 23.0 mph N/A   Overcast
10:54 AM 33.1 °F 24.4 °F 18.0 °F 54% 29.99 in 10.0 mi East 11.5 mph 21.9 mph N/A   Overcast
12:54 PM 34.0 °F 26.6 °F 16.0 °F 48% 29.96 in 10.0 mi East 9.2 mph 21.9 mph N/A   Overcast
1:54 PM 34.0 °F 24.6 °F 10.0 °F 37% 29.96 in 10.0 mi East 13.8 mph 31.1 mph N/A   Overcast
2:54 PM 34.0 °F 26.0 °F 7.0 °F 32% 29.91 in 10.0 mi East 10.4 mph 28.8 mph N/A   Mostly Cloudy
3:54 PM 33.1 °F 25.5 °F 10.0 °F 38% 29.93 in 10.0 mi East 9.2 mph 26.5 mph N/A   Overcast
4:54 PM 30.9 °F 20.2 °F 15.1 °F 52% 29.93 in 7.0 mi East 15.0 mph 27.6 mph 0.00 in   Overcast
5:54 PM 28.9 °F 18.2 °F 21.0 °F 72% 29.91 in 4.0 mi East 13.8 mph 29.9 mph 0.00 in Snow Light Snow
6:54 PM 30.0 °F 21.7 °F 19.9 °F 66% 29.90 in 10.0 mi ENE 9.2 mph - 0.00 in   Overcast
7:30 PM 28.4 °F 18.0 °F 19.4 °F 69% 29.88 in 3.0 mi East 12.7 mph 25.3 mph 0.00 in Snow Light Snow
7:54 PM 28.9 °F 20.4 °F 21.0 °F 72% 29.94 in 3.0 mi East 9.2 mph - 0.00 in Snow Light Snow
8:03 PM 28.4 °F 19.7 °F 21.2 °F 74% 29.88 in 1.8 mi ENE 9.2 mph 18.4 mph 0.00 in Snow Light Snow
8:14 PM 28.4 °F 18.0 °F 24.8 °F 86% 29.87 in 0.8 mi East 12.7 mph 17.3 mph 0.01 in Snow Light Snow
8:28 PM 26.6 °F 17.5 °F 24.8 °F 93% 29.85 in 0.5 mi East 9.2 mph 20.7 mph 0.02 in Fog , Snow Snow
8:45 PM 26.6 °F 16.8 °F 24.8 °F 93% 29.84 in 0.2 mi ENE 10.4 mph - 0.03 in Fog , Snow Heavy Snow
8:54 PM 27.0 °F 16.7 °F 24.1 °F 89% 29.87 in 0.5 mi ENE 11.5 mph 24.2 mph 0.04 in Fog , Snow Snow
9:14 PM 26.6 °F 15.7 °F 24.8 °F 93% 29.80 in 1.0 mi ENE 12.7 mph 20.7 mph 0.00 in Snow Light Snow
9:30 PM 26.6 °F 16.2 °F 24.8 °F 93% 29.78 in 1.0 mi ENE 11.5 mph 21.9 mph 0.00 in Snow Light Snow
9:44 PM 26.6 °F 13.8 °F 24.8 °F 93% 29.76 in 0.8 mi NE 17.3 mph 26.5 mph 0.00 in Snow Light Snow
9:54 PM 27.0 °F 15.6 °F 24.1 °F 89% 29.82 in 0.8 mi ENE 13.8 mph 25.3 mph 0.00 in Snow Light Snow
10:20 PM 26.6 °F 18.2 °F 24.8 °F 93% 29.77 in 1.0 mi East 8.1 mph 20.7 mph 0.01 in Snow Light Snow
10:27 PM 26.6 °F 16.8 °F 24.8 °F 93% 29.77 in 0.8 mi East 10.4 mph 17.3 mph 0.01 in Snow Light Snow
10:46 PM 26.6 °F 16.8 °F 24.8 °F 93% 29.76 in 0.5 mi East 10.4 mph 18.4 mph 0.01 in Fog , Snow Snow
10:54 PM 27.0 °F 19.5 °F 24.1 °F 89% 29.81 in 0.8 mi East 6.9 mph 18.4 mph 0.01 in Snow Light Snow
11:54 PM 27.0 °F 18.0 °F 24.1 °F 89% 29.79 in 0.8 mi East 9.2 mph 19.6 mph 0.02 in Snow Light Snow